When you browse on this site, cookies collect data to enhance your experience and personalize the content and advertising you see.
Visit our Privacy Policy to learn more. By continuing to use the site, you agree to this use of cookies and data.
  • In Portugal
  • List of Countries
  • For 7 days
  • Water Temperature
  • Satellite Maps
  • Weather Map
  • Weather Widgets
  • user-avatar
    Login

    Hourly Weather Malanville

    Today, 26 May, Sunday

    Time Temperature Precipitation Wind Pressure Humidity
    00:00 +36°C° 0 mm 3 mps 742 mmHg 46%
    01:00 +36°C° 0 mm 3 mps 742 mmHg 48%
    02:00 +35°C° 0 mm 3 mps 741 mmHg 49%
    03:00 +35°C° 0 mm 4 mps 741 mmHg 51%
    04:00 +35°C° 0 mm 4 mps 741 mmHg 52%
    05:00 +34°C° 0 mm 4 mps 742 mmHg 54%
    06:00 +34°C° 0 mm 4 mps 742 mmHg 55%
    07:00 +36°C° 0 mm 4 mps 742 mmHg 51%
    08:00 +37°C° 0 mm 4 mps 742 mmHg 46%
    09:00 +40°C° 0 mm 4 mps 743 mmHg 42%
    10:00 +40°C° 0 mm 3 mps 742 mmHg 37%
    11:00 +42°C° 0 mm 3 mps 742 mmHg 33%
    12:00 +42°C° 0 mm 2 mps 741 mmHg 29%
    13:00 +43°C° 0 mm 2 mps 741 mmHg 26%
    14:00 +45°C° 0 mm 2 mps 740 mmHg 23%
    15:00 +44°C° 0 mm 1 mps 739 mmHg 20%
    16:00 +45°C° 0 mm 2 mps 739 mmHg 22%
    17:00 +43°C° 0 mm 2 mps 739 mmHg 24%
    18:00 +43°C° 0 mm 3 mps 739 mmHg 26%
    19:00 +42°C° 0 mm 3 mps 740 mmHg 29%
    20:00 +42°C° 0 mm 3 mps 740 mmHg 32%
    21:00 +40°C° 0 mm 2 mps 740 mmHg 35%
    22:00 +39°C° 0.2 mm 3 mps 740 mmHg 38%
    23:00 +38°C° 0.2 mm 4 mps 740 mmHg 42%

    Tomorrow, 27 May, Monday

    Time Temperature Precipitation Wind Pressure Humidity
    00:00 +37°C° 0.2 mm 5 mps 740 mmHg 45%
    01:00 +36°C° 0.1 mm 5 mps 740 mmHg 46%
    02:00 +36°C° 0.1 mm 6 mps 740 mmHg 48%
    03:00 +35°C° 0.1 mm 6 mps 740 mmHg 49%
    04:00 +34°C° 0 mm 6 mps 740 mmHg 54%
    05:00 +33°C° 0 mm 6 mps 741 mmHg 58%
    06:00 +33°C° 0 mm 7 mps 741 mmHg 62%
    07:00 +33°C° 0 mm 7 mps 741 mmHg 60%
    08:00 +34°C° 0 mm 7 mps 742 mmHg 58%
    09:00 +34°C° 0 mm 7 mps 742 mmHg 56%
    10:00 +36°C° 0 mm 6 mps 742 mmHg 48%
    11:00 +40°C° 0 mm 5 mps 741 mmHg 40%
    12:00 +42°C° 0 mm 4 mps 741 mmHg 33%
    13:00 +42°C° 0 mm 4 mps 741 mmHg 31%
    14:00 +43°C° 0 mm 4 mps 740 mmHg 29%
    15:00 +43°C° 0 mm 3 mps 739 mmHg 27%
    16:00 +43°C° 0 mm 4 mps 739 mmHg 29%
    17:00 +42°C° 0 mm 4 mps 740 mmHg 31%
    18:00 +41°C° 0 mm 4 mps 740 mmHg 33%
    19:00 +40°C° 0 mm 4 mps 740 mmHg 35%
    20:00 +38°C° 0 mm 3 mps 741 mmHg 38%
    21:00 +37°C° 0 mm 3 mps 742 mmHg 40%
    22:00 +37°C° 0 mm 3 mps 741 mmHg 42%
    23:00 +36°C° 0 mm 3 mps 741 mmHg 44%

    Day after tomorrow, 28 May, Tuesday

    Time Temperature Precipitation Wind Pressure Humidity
    00:00 +36°C° 0 mm 4 mps 741 mmHg 46%
    01:00 +35°C° 0 mm 4 mps 741 mmHg 49%
    02:00 +35°C° 0 mm 4 mps 741 mmHg 52%
    03:00 +34°C° 0 mm 5 mps 741 mmHg 54%
    04:00 +34°C° 0 mm 5 mps 741 mmHg 56%
    05:00 +33°C° 0 mm 5 mps 741 mmHg 58%
    06:00 +33°C° 0 mm 5 mps 741 mmHg 60%
    07:00 +34°C° 0 mm 5 mps 742 mmHg 55%
    08:00 +36°C° 0 mm 5 mps 742 mmHg 51%
    09:00 +38°C° 0 mm 6 mps 743 mmHg 47%
    10:00 +39°C° 0 mm 5 mps 742 mmHg 43%
    11:00 +41°C° 0 mm 5 mps 742 mmHg 38%
    12:00 +42°C° 0 mm 4 mps 741 mmHg 33%
    13:00 +43°C° 0 mm 4 mps 741 mmHg 31%
    14:00 +44°C° 0 mm 3 mps 740 mmHg 29%
    15:00 +44°C° 0 mm 3 mps 739 mmHg 27%
    16:00 +43°C° 0 mm 4 mps 739 mmHg 29%
    17:00 +43°C° 0 mm 4 mps 739 mmHg 30%
    18:00 +42°C° 0 mm 4 mps 740 mmHg 32%
    19:00 +41°C° 0 mm 5 mps 740 mmHg 37%
    20:00 +39°C° 0 mm 5 mps 740 mmHg 42%
    21:00 +37°C° 0 mm 5 mps 741 mmHg 47%
    22:00 +36°C° 0.1 mm 5 mps 741 mmHg 51%
    23:00 +35°C° 0.1 mm 6 mps 741 mmHg 55%

    29 May, Wednesday

    Time Temperature Precipitation Wind Pressure Humidity
    00:00 +33°C° 0.1 mm 6 mps 741 mmHg 59%
    01:00 +33°C° 0.7 mm 5 mps 741 mmHg 60%
    02:00 +33°C° 0.7 mm 3 mps 741 mmHg 61%
    03:00 +31°C° 0.7 mm 2 mps 740 mmHg 61%
    04:00 +31°C° 0.3 mm 2 mps 741 mmHg 61%
    05:00 +33°C° 0.3 mm 3 mps 741 mmHg 60%
    06:00 +33°C° 0.3 mm 4 mps 742 mmHg 60%
    07:00 +33°C° 0 mm 5 mps 742 mmHg 58%
    08:00 +34°C° 0 mm 6 mps 742 mmHg 57%
    09:00 +35°C° 0 mm 7 mps 742 mmHg 55%
    10:00 +36°C° 0 mm 6 mps 742 mmHg 50%
    11:00 +39°C° 0 mm 6 mps 741 mmHg 45%
    12:00 +41°C° 0 mm 5 mps 741 mmHg 40%
    13:00 +41°C° 0 mm 5 mps 740 mmHg 37%
    14:00 +42°C° 0 mm 4 mps 739 mmHg 35%
    15:00 +43°C° 0 mm 4 mps 739 mmHg 32%
    16:00 +42°C° 0 mm 3 mps 739 mmHg 34%
    17:00 +40°C° 0 mm 3 mps 739 mmHg 35%
    18:00 +40°C° 0 mm 2 mps 739 mmHg 36%
    19:00 +39°C° 0 mm 3 mps 740 mmHg 38%
    20:00 +39°C° 0 mm 3 mps 740 mmHg 41%
    21:00 +38°C° 0 mm 4 mps 741 mmHg 43%
    22:00 +37°C° 0 mm 5 mps 741 mmHg 46%
    23:00 +37°C° 0 mm 5 mps 740 mmHg 49%

    30 May, Thursday

    Time Temperature Precipitation Wind Pressure Humidity
    00:00 +36°C° 0 mm 6 mps 740 mmHg 51%
    01:00 +36°C° 0 mm 6 mps 740 mmHg 52%
    02:00 +36°C° 0 mm 6 mps 740 mmHg 52%
    03:00 +36°C° 0 mm 5 mps 740 mmHg 52%
    04:00 +35°C° 0 mm 6 mps 740 mmHg 55%
    05:00 +34°C° 0 mm 6 mps 740 mmHg 57%
    06:00 +33°C° 0 mm 6 mps 741 mmHg 60%
    07:00 +34°C° 0 mm 6 mps 741 mmHg 58%
    08:00 +35°C° 0 mm 6 mps 742 mmHg 56%
    09:00 +35°C° 0 mm 6 mps 742 mmHg 54%
    10:00 +37°C° 0 mm 5 mps 742 mmHg 50%
    11:00 +39°C° 0 mm 5 mps 741 mmHg 45%
    12:00 +41°C° 0 mm 5 mps 741 mmHg 41%
    13:00 +40°C° 0 mm 3 mps 740 mmHg 39%
    14:00 +40°C° 0 mm 2 mps 739 mmHg 38%
    15:00 +40°C° 0 mm 1 mps 739 mmHg 37%
    16:00 +40°C° 0 mm 1 mps 739 mmHg 38%
    17:00 +39°C° 0 mm 2 mps 739 mmHg 39%
    18:00 +39°C° 0 mm 2 mps 739 mmHg 41%
    19:00 +39°C° 0 mm 3 mps 740 mmHg 42%
    20:00 +38°C° 0 mm 3 mps 741 mmHg 43%
    21:00 +38°C° 0 mm 4 mps 741 mmHg 44%
    22:00 +36°C° 0 mm 5 mps 741 mmHg 49%
    23:00 +35°C° 0 mm 6 mps 741 mmHg 55%

    31 May, Friday

    Time Temperature Precipitation Wind Pressure Humidity
    00:00 +34°C° 0 mm 7 mps 740 mmHg 60%
    01:00 +33°C° 0 mm 7 mps 740 mmHg 62%
    02:00 +33°C° 0 mm 7 mps 740 mmHg 64%
    03:00 +32°C° 0 mm 7 mps 740 mmHg 67%
    04:00 +32°C° 0 mm 6 mps 741 mmHg 67%
    05:00 +32°C° 0 mm 6 mps 741 mmHg 67%
    06:00 +32°C° 0 mm 5 mps 742 mmHg 67%
    07:00 +32°C° 0 mm 5 mps 742 mmHg 65%
    08:00 +33°C° 0 mm 5 mps 743 mmHg 62%
    09:00 +34°C° 0 mm 5 mps 743 mmHg 60%
    10:00 +35°C° 0 mm 5 mps 742 mmHg 55%
    11:00 +36°C° 0 mm 5 mps 742 mmHg 51%
    12:00 +39°C° 0 mm 5 mps 742 mmHg 46%
    13:00 +38°C° 0 mm 4 mps 741 mmHg 44%
    14:00 +38°C° 0 mm 4 mps 741 mmHg 42%
    15:00 +40°C° 0 mm 4 mps 740 mmHg 41%
    16:00 +38°C° 0 mm 4 mps 740 mmHg 42%
    17:00 +38°C° 0 mm 4 mps 740 mmHg 43%
    18:00 +37°C° 0 mm 3 mps 741 mmHg 45%
    19:00 +37°C° 0 mm 3 mps 741 mmHg 47%
    20:00 +36°C° 0 mm 3 mps 741 mmHg 49%
    21:00 +36°C° 0 mm 4 mps 742 mmHg 51%
    22:00 +35°C° 0 mm 4 mps 742 mmHg 54%
    23:00 +35°C° 0 mm 4 mps 742 mmHg 57%
    Show more